RH
32 31 34 32 33 34 34 36 38 38 38 41 45 43 46 45 53 51 63 53 51 49 48 51 53 53 56 67 75 87 88 90 91 68 49 42 29 25 26 27 20 16 13
33 36 35 33 33 31 32 37 42 45 47 45 45 45 46 45 46 53 43 49 55 52 48 46 49 54 56 63 78 82 82 85 81 58 54 44 29 27 26 27 20 18 14
33 36 35 35 33 33 31 36 40 44 45 48 43 43 45 50 52 49 47 46 44 48 48 49 45 46 53 63 65 70 76 85 80 62 52 39 33 26 27 25 22 16 17
30 40 39 33 35 36 37 36 37 37 38 41 41 41 42 48 52 51 52 53 49 47 47 46 45 44 46 52 61 65 73 83 85 76 47 39 32 26 27 29 23 17 20
33 38 41 39 39 40 40 39 37 38 38 40 40 41 41 41 45 44 48 49 49 48 47 52 53 50 51 53 55 57 65 69 76 78 78 56 39 27 26 30 25 20 20
33 35 40 41 43 39 40 38 41 42 41 41 45 42 42 43 40 41 43 44 43 44 46 43 47 50 52 55 56 59 60 59 67 68 76 66 46 29 24 28 26 23 21
34 35 38 38 43 41 40 41 41 42 43 43 44 48 45 44 42 41 42 41 42 43 44 43 42 43 46 52 51 53 58 60 58 64 68 77 66 38 26 22 26 26 24
38 35 37 38 38 38 43 43 44 45 48 49 48 49 48 45 43 42 42 43 42 43 45 46 47 43 44 46 51 50 56 60 64 63 64 72 63 50 34 28 27 26 27
36 39 36 40 40 39 40 46 48 48 50 55 57 54 53 48 44 43 46 49 50 45 45 46 46 50 48 44 47 54 56 58 65 69 70 69 70 67 47 38 35 34 32
40 38 37 39 44 43 43 46 50 52 55 56 63 60 57 57 56 53 49 53 59 50 47 50 47 48 49 47 47 52 58 59 64 68 76 77 77 70 68 49 42 41 38
46 41 43 45 53 50 49 48 56 58 59 63 64 66 66 59 57 59 55 55 58 56 52 53 52 50 46 49 51 51 56 64 68 66 69 72 82 78 69 58 52 47 39
60 58 57 54 64 68 66 65 60 66 68 71 66 69 66 65 70 69 68 64 68 63 57 55 57 54 51 49 51 51 55 65 67 69 71 81 88 83 77 70 56 53 41
84 82 84 76 80 75 81 72 71 70 71 71 70 63 71 64 64 80 75 74 74 76 70 62 61 60 59 57 53 52 54 62 64 65 67 75 88 95 90 81 58 61 40
85 56 98 77 75 74 83 76 70 68 68 70 72 70 72 72 69 75 75 75 78 82 76 67 69 72 69 61 58 54 53 61 61 63 69 74 86 96 98 89 80 64 49
91 90 96 83 85 80 67 67 67 63 72 71 74 76 80 79 77 77 79 78 82 91 82 79 75 79 78 67 65 56 54 58 66 68 81 90 91 94 92 90 80 68 52
97 98 97 92 85 77 73 68 67 66 73 72 73 72 82 94 89 89 87 84 81 78 80 75 76 84 84 70 69 68 53 54 64 75 83 88 95 96 94 89 81 66 61
91 90 86 82 86 83 75 70 69 72 72 74 76 76 81 87 90 86 89 89 90 89 86 81 82 81 82 75 71 74 62 57 53 63 77 88 96 99 93 94 92 75 65
96 97 85 91 87 85 82 78 78 78 74 75 79 80 80 85 86 90 93 95 99 97 93 83 81 85 88 83 79 74 76 61 56 57 65 83 94 98 94 97 97 96 86
88 86 78 92 89 80 75 75 76 76 79 81 82 84 88 87 87 90 93 88 88 94 88 89 79 87 89 88 85 79 78 65 61 57 62 72 89 98 97 97 98 97 97
85 87 84 81 83 84 80 74 75 77 82 80 85 89 92 90 88 84 91 88 90 90 91 88 85 83 87 86 89 84 79 72 63 61 61 66 82 93 99 99 98 98 98
84 77 79 82 83 82 80 85 78 82 87 89 87 89 89 91 89 85 81 84 87 88 92 98 97 90 83 83 87 87 84 79 69 63 59 63 76 90 95 97 96 96 96
77 83 83 82 78 91 91 89 94 91 89 89 94 95 97 96 90 89 86 82 83 83 86 93 92 82 82 81 87 89 90 82 76 65 65 64 77 88 95 94 93 95 97
66 66 63 65 64 67 73 80 87 87 89 95 91 93 97 93 95 95 92 91 86 88 85 81 78 80 83 86 88 97 99 87 79 76 72 69 73 83 90 96 96 96 97
41 41 41 42 45 48 50 57 63 64 61 71 75 80 87 86 86 95 87 94 92 92 94 83 92 80 98 96 95 94 98 96 88 84 80 72 73 72 79 86 95 97 98
23 23 24 24 25 27 28 30 31 31 35 42 50 53 54 58 76 79 77 86 91 88 86 88 87 90 99 96 97 96 97 98 92 91 86 79 72 68 71 79 85 88 95
13 13 13 13 13 14 14 14 15 16 18 22 28 31 37 48 51 53 61 78 84 90 91 93 91 96 99 99 99 99 97 96 96 93 88 89 80 71 75 75 80 73 80